PBO Station Position Time Series. Reference Frame : NAM14
Format Version,1.1.0
4-character ID,P813
Station name,WilburMastWA2013
Begin Date, 2013-08-29
End Date, 2019-10-07
Release Date, 2019-10-08
Reference position, 47.7592100746 North Latitude, -118.7455244907 East Longitude, 644.04897 meters elevation,
Date, North (mm), East (mm), Vertical (mm), North Std. Deviation (mm), East Std. Deviation (mm),              Vertical Std. Deviation (mm), Quality,
2013-08-29,0.00, 0.00, 0.00, 2.22, 1.50, 6.94, repro,
2013-08-30,-0.92, 2.16, 2.59, 2.17, 1.48, 6.76, repro,
2013-08-31,-0.09, 1.01, 2.35, 2.16, 1.48, 6.74, repro,
2013-09-01,-1.47, 0.80, 5.13, 2.23, 1.51, 6.87, repro,
2013-09-02,-1.50, 0.10, -6.01, 2.22, 1.50, 6.82, repro,
2013-09-03,0.80, -1.42, -8.32, 2.34, 1.56, 7.04, repro,
2013-09-04,-1.02, 1.83, 2.16, 2.22, 1.50, 6.84, repro,
2013-09-05,0.59, -0.35, 4.89, 2.18, 1.49, 6.80, repro,
2013-09-06,-0.87, 0.46, -2.43, 2.25, 1.55, 7.08, repro,
2013-09-07,0.20, 0.69, -10.79, 2.17, 1.47, 6.70, repro,
2013-09-08,0.02, -0.28, -5.38, 2.16, 1.47, 6.66, repro,
2013-09-09,-0.85, 1.39, 2.84, 2.15, 1.47, 6.67, repro,
2013-09-10,0.77, 0.27, 0.01, 2.15, 1.47, 6.67, repro,
2013-09-11,0.22, 0.87, 0.10, 2.25, 1.51, 6.90, repro,
2013-09-12,0.36, 0.66, 0.60, 2.16, 1.47, 6.64, repro,
2013-09-13,1.16, 0.72, 0.46, 2.18, 1.47, 6.68, repro,
2013-09-14,1.26, -0.15, -1.61, 2.16, 1.47, 6.66, repro,
2013-09-15,0.05, 0.68, -0.50, 2.16, 1.48, 6.68, repro,
2013-09-16,0.24, 1.54, 2.19, 2.18, 1.49, 6.77, repro,
2013-09-17,-1.38, 0.15, -3.57, 2.22, 1.50, 6.77, repro,
2013-09-18,-0.33, -0.51, -2.45, 2.16, 1.47, 6.64, repro,
2013-09-19,0.06, 0.46, -5.27, 2.17, 1.47, 6.68, repro,
2013-09-20,-0.12, 1.15, 2.96, 2.16, 1.47, 6.69, repro,
2013-09-21,-0.21, -0.35, 9.39, 2.16, 1.48, 6.73, repro,
2013-09-22,-0.96, 0.95, 10.66, 2.17, 1.47, 6.68, repro,
2013-09-23,-1.31, 0.08, -1.23, 2.16, 1.47, 6.68, repro,
2013-09-24,-0.59, 0.80, -0.54, 2.16, 1.47, 6.65, repro,
2013-09-25,0.01, 0.66, 2.25, 2.16, 1.47, 6.68, repro,
2013-09-26,-0.11, 0.80, -1.58, 2.15, 1.47, 6.64, repro,
2013-09-27,0.53, 0.96, 2.83, 2.16, 1.47, 6.67, repro,
2013-09-28,-0.94, 2.11, -1.46, 2.15, 1.47, 6.63, repro,
2013-09-29,-0.52, 0.19, 2.48, 2.20, 1.51, 6.86, repro,
2013-09-30,-0.72, 1.26, 6.48, 2.17, 1.47, 6.69, repro,
2013-10-01,-1.04, 1.59, 0.60, 2.18, 1.48, 6.73, repro,
2013-10-02,-0.42, 0.18, -6.60, 2.17, 1.47, 6.72, repro,
2013-10-03,0.06, 0.60, -7.05, 2.15, 1.46, 6.64, repro,
2013-10-04,0.36, 1.20, -10.50, 2.15, 1.46, 6.64, repro,
2013-10-05,0.05, 0.66, -11.51, 2.16, 1.47, 6.69, repro,
2013-10-06,-0.14, 0.54, -7.18, 2.18, 1.47, 6.72, repro,
2013-10-07,0.46, 0.95, -1.82, 2.16, 1.46, 6.64, repro,
2013-10-08,-0.47, 0.35, -1.22, 2.17, 1.47, 6.75, repro,
2013-10-09,-1.32, 0.94, -4.17, 2.17, 1.48, 6.73, repro,
2013-10-10,0.16, 0.60, -1.67, 2.16, 1.47, 6.67, repro,
2013-10-11,0.02, 0.34, -5.10, 2.17, 1.48, 6.73, repro,
2013-10-12,0.86, 1.04, -4.36, 2.18, 1.48, 6.72, repro,
2013-10-13,0.76, 1.06, -8.62, 2.21, 1.48, 6.82, repro,
2013-10-14,1.51, 1.33, -8.49, 2.17, 1.48, 6.70, repro,
2013-10-15,0.57, 0.45, -11.24, 2.16, 1.47, 6.68, repro,
2013-10-16,0.57, -0.00, -2.52, 2.18, 1.48, 6.72, repro,
2013-10-17,0.67, 1.14, -8.05, 2.18, 1.48, 6.73, repro,
2013-10-18,-1.04, 0.88, -6.16, 2.16, 1.47, 6.67, repro,
2013-10-19,-0.41, 0.32, -3.15, 2.16, 1.47, 6.67, repro,
2013-10-20,0.40, 0.21, -5.62, 2.20, 1.51, 6.83, repro,
2013-10-21,0.35, 0.85, -12.77, 2.24, 1.51, 6.94, repro,
2013-10-22,1.16, 0.31, -8.39, 2.20, 1.49, 6.82, repro,
2013-10-23,0.40, 0.86, -9.13, 2.18, 1.47, 6.70, repro,
2013-10-24,-1.19, 0.75, -10.44, 2.20, 1.48, 6.81, repro,
2013-10-25,-0.41, 1.10, -15.04, 2.16, 1.47, 6.68, repro,
2013-10-26,-0.02, 0.72, -15.17, 2.17, 1.47, 6.67, repro,
2013-10-27,1.37, -0.26, -6.93, 2.19, 1.48, 6.74, repro,
2013-10-28,1.47, 0.51, -4.56, 2.17, 1.48, 6.74, repro,
2013-10-29,-0.13, 1.27, 0.64, 2.20, 1.51, 6.81, repro,
2013-10-30,-0.67, 0.56, -3.81, 2.20, 1.48, 6.82, repro,
2013-10-31,1.17, -0.43, -0.68, 2.18, 1.48, 6.74, repro,
2013-11-01,0.79, 0.59, -6.04, 2.21, 1.51, 6.87, repro,
2013-11-02,0.14, 0.58, -2.46, 2.23, 1.49, 6.81, repro,
2013-11-03,0.69, 0.80, 0.33, 2.23, 1.49, 6.80, repro,
2013-11-04,1.02, 0.91, -5.51, 2.28, 1.53, 6.95, repro,
2013-11-05,1.34, 0.85, -3.81, 2.25, 1.50, 6.92, repro,
2013-11-06,-0.25, 0.22, -14.76, 2.17, 1.47, 6.70, repro,
2013-11-07,0.31, 0.58, -9.82, 2.22, 1.49, 6.84, repro,
2013-11-08,0.03, 1.78, -3.03, 2.16, 1.47, 6.66, repro,
2013-11-09,-0.31, 1.04, -5.23, 2.18, 1.48, 6.74, repro,
2013-11-10,0.46, 0.62, -8.77, 2.15, 1.47, 6.68, repro,
2013-11-11,0.36, 1.22, -12.51, 2.16, 1.48, 6.69, repro,
2013-11-12,1.05, 1.01, -12.42, 2.15, 1.46, 6.63, repro,
2013-11-13,-0.41, 0.93, -15.06, 2.16, 1.47, 6.67, repro,
2013-11-14,-1.05, 0.27, -9.29, 2.14, 1.46, 6.64, repro,
2013-11-15,-0.86, 1.00, 0.23, 2.15, 1.47, 6.67, repro,
2013-11-16,0.63, 0.58, 5.70, 2.17, 1.48, 6.74, repro,
2013-11-17,0.56, 0.60, -1.50, 2.15, 1.46, 6.64, repro,
2013-11-18,0.96, 1.37, -6.05, 2.20, 1.50, 6.80, repro,
2013-11-19,0.67, 1.88, -3.72, 2.23, 1.53, 7.01, repro,
2013-11-20,1.43, 0.71, -10.10, 2.17, 1.47, 6.68, repro,
2013-11-21,0.49, 1.12, -12.87, 2.16, 1.48, 6.73, repro,
2013-11-22,-0.53, 1.24, -22.77, 2.16, 1.48, 6.70, repro,
2013-11-23,0.14, 1.75, -17.44, 2.16, 1.47, 6.67, repro,
2013-11-24,-0.36, 1.55, -7.05, 2.16, 1.48, 6.71, repro,
2013-11-25,1.35, 1.78, -11.57, 2.22, 1.50, 6.82, repro,
2013-11-26,0.03, 2.04, -15.99, 2.21, 1.50, 6.79, repro,
2013-11-27,0.67, 1.30, -9.56, 2.21, 1.50, 6.77, repro,
2013-11-28,-0.25, 0.82, -11.59, 2.22, 1.52, 6.84, repro,
2013-11-29,-0.35, 0.38, -12.26, 2.19, 1.50, 6.77, repro,
2013-11-30,0.35, 0.92, -11.85, 2.19, 1.51, 6.78, repro,
2013-12-01,0.08, 1.14, -9.34, 2.19, 1.51, 6.76, repro,
2013-12-03,-1.40, 0.47, -10.20, 2.28, 1.62, 7.07, repro,
2013-12-04,-0.87, 0.64, -10.13, 2.25, 1.58, 7.00, repro,
2013-12-05,0.35, 0.84, -11.78, 2.30, 1.60, 7.05, repro,
2013-12-06,0.39, 1.59, -7.34, 2.19, 1.52, 6.82, repro,
2013-12-07,0.42, 1.78, -11.35, 2.19, 1.51, 6.78, repro,
2013-12-08,0.29, 0.65, -9.71, 2.20, 1.51, 6.80, repro,
2013-12-09,-0.03, 0.25, -8.48, 2.17, 1.47, 6.69, repro,
2013-12-10,0.75, 0.69, -9.70, 2.15, 1.46, 6.67, repro,
2013-12-11,1.47, 1.46, -10.66, 2.15, 1.47, 6.68, repro,
2013-12-12,0.82, 2.10, -11.85, 2.23, 1.54, 6.90, repro,
2013-12-13,0.66, 1.33, -10.23, 2.17, 1.47, 6.72, repro,
2013-12-14,-0.52, 2.67, -6.03, 2.22, 1.51, 6.86, repro,
2013-12-15,-0.12, 0.31, -5.41, 2.23, 1.54, 6.90, repro,
2013-12-16,-0.99, 0.29, -6.57, 2.18, 1.50, 6.74, repro,
2013-12-17,-0.90, 0.62, -8.71, 2.14, 1.47, 6.65, repro,
2013-12-18,0.25, 0.74, -5.02, 2.15, 1.47, 6.68, repro,
2013-12-19,-0.90, 0.33, -2.81, 2.27, 1.57, 7.05, repro,
2013-12-20,0.22, 0.90, -1.49, 2.19, 1.50, 6.81, repro,
2013-12-21,0.24, 1.03, 0.95, 2.18, 1.50, 6.81, repro,
2013-12-22,0.88, 0.99, -2.21, 2.17, 1.50, 6.81, repro,
2013-12-23,0.46, 0.78, -10.10, 2.16, 1.47, 6.70, repro,
2013-12-24,-0.99, -0.12, -13.13, 2.18, 1.49, 6.78, repro,
2013-12-25,-1.38, 0.49, -12.50, 2.26, 1.57, 7.03, repro,
2013-12-26,0.00, 0.30, -14.34, 2.17, 1.51, 6.74, repro,
2013-12-27,-0.10, 1.02, -10.63, 2.18, 1.50, 6.76, repro,
2013-12-28,0.75, 1.06, -14.92, 2.27, 1.58, 7.10, repro,
2013-12-29,0.08, 1.75, -15.23, 2.20, 1.52, 6.86, repro,
2013-12-30,0.15, 1.55, -15.07, 2.26, 1.57, 7.03, repro,
2013-12-31,0.92, 0.08, -13.49, 2.20, 1.53, 6.84, repro,
2014-01-01,-0.03, 0.79, -12.93, 2.22, 1.54, 6.89, repro,
2014-01-02,-0.21, 1.18, -11.39, 2.22, 1.53, 6.95, repro,
2014-01-03,0.48, 0.57, -5.25, 2.23, 1.53, 6.97, repro,
2014-01-04,0.49, 1.66, -8.54, 2.16, 1.48, 6.71, repro,
2014-01-05,1.16, 0.69, -16.67, 2.23, 1.54, 6.97, repro,
2014-01-06,-0.44, 0.92, -16.02, 2.20, 1.53, 6.90, repro,
2014-01-07,1.44, 1.26, -11.23, 2.21, 1.51, 6.86, repro,
2014-01-08,-0.40, 1.20, -6.50, 2.17, 1.48, 6.73, repro,
2014-01-09,1.46, -0.15, -7.93, 2.21, 1.52, 6.93, repro,
2014-01-10,-0.70, -0.14, 1.09, 2.25, 1.59, 7.17, repro,
2014-01-11,-0.36, 0.83, 3.52, 2.15, 1.47, 6.65, repro,
2014-01-12,-2.15, -0.30, 0.09, 2.15, 1.48, 6.69, repro,
2014-01-13,0.95, -1.37, -13.67, 2.21, 1.52, 6.91, repro,
2014-01-14,-0.00, 0.47, -17.18, 2.18, 1.49, 6.78, repro,
2014-01-15,0.95, 0.87, -16.06, 2.18, 1.50, 6.83, repro,
2014-01-16,1.11, 0.71, -14.00, 2.19, 1.51, 6.91, repro,
2014-01-17,-0.24, -0.36, -8.73, 2.22, 1.54, 6.96, repro,
2014-01-18,-0.65, -0.14, -10.10, 2.15, 1.48, 6.72, repro,
2014-01-19,-0.50, 0.39, -11.77, 2.19, 1.52, 6.91, repro,
2014-01-20,0.42, -0.26, -17.46, 2.17, 1.49, 6.77, repro,
2014-01-21,0.41, 0.34, -18.98, 2.15, 1.46, 6.66, repro,
2014-01-22,-0.23, -0.35, -17.98, 2.19, 1.49, 6.79, repro,
2014-01-23,-0.62, -0.64, -11.38, 2.15, 1.47, 6.69, repro,
2014-01-24,0.63, -0.32, -13.31, 2.23, 1.52, 6.99, repro,
2014-01-25,1.50, 1.22, -21.90, 3.67, 2.40, 11.01, repro,
2014-01-31,-1.39, -0.45, -9.50, 4.81, 3.10, 14.92, repro,
2014-02-01,-0.14, -1.18, -6.68, 2.19, 1.48, 6.75, repro,
2014-02-02,0.09, -0.29, -8.54, 2.24, 1.52, 7.02, repro,
2014-02-03,-0.06, -0.72, -7.11, 2.58, 1.68, 7.80, repro,
2014-02-04,0.14, 0.36, -8.47, 2.17, 1.50, 6.80, repro,
2014-02-05,-0.81, 0.07, -15.82, 2.22, 1.50, 6.83, repro,
2014-02-06,-0.59, 0.25, -6.51, 2.15, 1.46, 6.68, repro,
2014-02-07,-0.15, -0.27, -3.22, 2.18, 1.51, 6.91, repro,
2014-02-08,0.63, 0.30, -4.48, 2.17, 1.48, 6.78, repro,
2014-02-09,-0.72, 0.61, -4.89, 2.27, 1.54, 7.03, repro,
2014-02-10,-1.57, 0.31, -7.01, 2.27, 1.55, 6.94, repro,
2014-02-11,-3.17, 0.06, -0.85, 2.22, 1.50, 6.80, repro,
2014-02-12,-2.39, -0.05, -1.85, 2.15, 1.46, 6.65, repro,
2014-02-13,-1.84, -0.05, -7.32, 2.22, 1.50, 6.86, repro,
2014-02-14,-0.09, 0.27, -3.20, 2.24, 1.49, 6.89, repro,
2014-02-15,0.92, -0.71, -5.81, 2.17, 1.47, 6.72, repro,
2014-02-16,0.07, -0.31, -1.62, 2.17, 1.47, 6.75, repro,
2014-02-17,0.09, 0.63, 0.57, 2.21, 1.50, 6.83, repro,
2014-02-18,-0.05, 0.89, -5.45, 2.24, 1.54, 6.88, repro,
2014-02-19,-1.03, 0.25, -1.17, 2.24, 1.55, 6.99, repro,
2014-02-20,-0.68, 1.10, -3.62, 2.18, 1.47, 6.76, repro,
2014-02-21,-1.22, 1.60, -8.88, 2.16, 1.47, 6.72, repro,
2014-02-22,0.41, 0.81, -8.56, 2.25, 1.55, 6.96, repro,
2014-02-23,0.60, 0.79, -9.38, 2.43, 1.62, 7.30, repro,
2014-02-24,0.77, 0.30, -13.08, 2.24, 1.52, 6.90, repro,
2014-02-25,-0.69, 0.41, -13.55, 2.22, 1.51, 6.83, repro,
2014-02-26,-0.89, -0.38, -7.54, 2.21, 1.54, 6.90, repro,
2014-02-27,-0.23, -0.27, -7.93, 2.28, 1.57, 7.06, repro,
2014-02-28,-0.08, 0.56, -6.71, 2.32, 1.60, 7.23, repro,
2014-03-01,-0.16, 0.62, -6.22, 2.27, 1.55, 6.99, repro,
2014-03-02,-1.40, 0.30, -9.30, 2.23, 1.52, 6.89, repro,
2014-03-03,-0.62, 0.32, -6.22, 2.28, 1.57, 7.02, repro,
2014-03-04,-1.23, 0.72, -10.82, 2.29, 1.57, 7.02, repro,
2014-03-05,-2.17, -0.45, -8.64, 2.23, 1.53, 6.85, repro,
2014-03-06,0.06, 0.20, -9.34, 2.23, 1.52, 6.89, repro,
2014-03-07,-0.52, -0.24, -8.24, 2.34, 1.59, 7.24, repro,
2014-03-08,-0.67, 0.59, -8.69, 2.29, 1.59, 7.17, repro,
2014-03-09,0.47, 0.43, -7.63, 2.17, 1.49, 6.75, repro,
2014-03-10,-1.32, -0.83, -6.89, 2.18, 1.48, 6.72, repro,
2014-03-11,1.75, -0.31, -15.89, 2.17, 1.47, 6.69, repro,
2014-03-12,-0.21, 0.28, -17.25, 2.17, 1.48, 6.73, repro,
2014-03-13,0.11, 0.06, -7.73, 2.18, 1.50, 6.79, repro,
2014-03-14,-1.81, 0.06, -3.87, 2.18, 1.49, 6.74, repro,
2014-03-15,-1.09, 1.20, -10.36, 2.20, 1.53, 6.95, repro,
2014-03-16,-1.53, 1.33, -10.81, 2.18, 1.48, 6.78, repro,
2014-03-17,0.14, 0.26, -5.61, 2.19, 1.49, 6.82, repro,
2014-03-18,0.45, -0.71, -10.45, 2.17, 1.48, 6.77, repro,
2014-03-19,0.24, 0.86, -9.37, 2.25, 1.53, 6.99, repro,
2014-03-20,-0.15, -1.34, -9.64, 2.22, 1.53, 6.89, repro,
2014-03-21,0.82, 1.31, -16.17, 2.17, 1.48, 6.74, repro,
2014-03-22,1.05, 1.05, -16.42, 2.18, 1.48, 6.78, repro,
2014-03-23,0.54, 0.35, -16.81, 2.18, 1.49, 6.76, repro,
2014-03-24,0.70, 0.52, -14.14, 2.17, 1.48, 6.76, repro,
2014-03-25,0.20, -0.09, -8.51, 2.17, 1.48, 6.75, repro,
2014-03-26,-0.54, 0.39, -0.27, 2.17, 1.49, 6.79, repro,
2014-03-27,0.90, 0.36, -6.41, 2.17, 1.48, 6.72, repro,
2014-03-28,0.32, 0.74, -8.62, 2.18, 1.48, 6.71, repro,
2014-03-29,0.82, 0.78, -7.75, 2.28, 1.53, 6.85, repro,
2014-03-30,0.34, 0.44, -7.21, 2.17, 1.48, 6.72, repro,
2014-03-31,0.01, 0.02, -13.90, 2.19, 1.49, 6.74, repro,
2014-04-01,0.42, -0.17, -10.16, 2.30, 1.53, 7.01, repro,
2014-04-02,0.04, 0.35, -9.11, 2.17, 1.48, 6.71, repro,
2014-04-03,0.13, 0.86, -10.88, 2.19, 1.49, 6.75, repro,
2014-04-04,-0.54, 0.73, -8.14, 2.21, 1.51, 6.91, repro,
2014-04-05,0.27, -0.07, -6.77, 2.16, 1.49, 6.72, repro,
2014-04-06,0.72, 0.83, -11.40, 2.25, 1.52, 6.94, repro,
2014-04-07,-0.85, -0.31, -12.20, 2.19, 1.49, 6.75, repro,
2014-04-08,-0.35, -0.04, -15.50, 2.20, 1.50, 6.79, repro,
2014-04-09,0.50, 1.02, -8.35, 2.17, 1.48, 6.72, repro,
2014-04-10,1.47, 0.31, -9.73, 2.23, 1.51, 6.88, repro,
2014-04-11,0.08, -0.43, -11.22, 2.27, 1.54, 7.03, repro,
2014-04-12,-0.49, 0.53, -6.23, 2.23, 1.53, 6.96, repro,
2014-04-13,0.19, 0.01, -13.64, 2.20, 1.48, 6.73, repro,
2014-04-14,0.39, 1.09, -8.70, 2.18, 1.49, 6.76, repro,
2014-04-15,0.22, -0.99, -2.47, 2.25, 1.51, 6.77, repro,
2014-04-16,0.57, 0.27, -7.35, 2.33, 1.55, 6.96, repro,
2014-04-17,-0.22, 0.02, -11.56, 2.17, 1.49, 6.71, repro,
2014-04-18,-0.39, -0.24, -7.99, 2.17, 1.48, 6.71, repro,
2014-04-19,0.48, 0.09, -4.63, 2.19, 1.48, 6.72, repro,
2014-04-20,0.32, -0.37, -10.03, 2.16, 1.47, 6.65, repro,
2014-04-21,0.03, -0.12, -7.13, 2.18, 1.48, 6.73, repro,
2014-04-22,-0.04, 0.08, -3.12, 2.19, 1.49, 6.77, repro,
2014-04-23,-0.32, -0.69, -8.51, 2.20, 1.49, 6.78, repro,
2014-04-24,0.70, 1.14, -8.54, 2.19, 1.48, 6.75, repro,
2014-04-25,1.02, -0.20, -7.09, 2.18, 1.47, 6.70, repro,
2014-04-26,0.37, 0.20, -2.83, 2.17, 1.48, 6.67, repro,
2014-04-27,-0.70, -0.37, -1.26, 2.20, 1.50, 6.78, repro,
2014-04-28,-0.09, 0.18, -8.75, 2.26, 1.52, 6.92, repro,
2014-04-29,0.98, 0.51, -18.64, 2.25, 1.52, 6.91, repro,
2014-04-30,0.74, 0.47, -16.52, 2.23, 1.50, 6.81, repro,
2014-05-01,0.48, -0.26, -11.38, 2.17, 1.47, 6.66, repro,
2014-05-02,0.55, -0.29, -9.05, 2.18, 1.48, 6.72, repro,
2014-05-03,1.01, -0.45, -2.48, 2.20, 1.50, 6.80, repro,
2014-05-04,1.02, 1.14, -3.89, 2.28, 1.53, 6.89, repro,
2014-05-05,0.72, 0.78, -4.01, 2.18, 1.48, 6.73, repro,
2014-05-06,-0.60, 0.05, -10.02, 2.16, 1.47, 6.68, repro,
2014-05-07,0.49, -0.16, -5.73, 2.16, 1.47, 6.63, repro,
2014-05-08,-1.00, 0.29, -7.15, 2.22, 1.51, 6.94, repro,
2014-05-09,-0.22, -0.12, 1.18, 2.22, 1.52, 6.96, repro,
2014-05-10,0.94, -0.28, -9.87, 2.18, 1.48, 6.72, repro,
2014-05-11,-0.17, 0.38, -13.78, 2.18, 1.47, 6.69, repro,
2014-05-12,0.33, 0.06, -15.83, 2.14, 1.46, 6.62, repro,
2014-05-13,0.14, 0.59, -16.18, 2.19, 1.48, 6.73, repro,
2014-05-14,-0.51, 0.87, -14.58, 2.19, 1.49, 6.76, repro,
2014-05-15,-0.32, 1.17, -11.17, 2.20, 1.52, 6.87, repro,
2014-05-16,-0.54, 1.01, -8.81, 2.19, 1.48, 6.76, repro,
2014-05-17,-1.72, 0.44, -8.58, 2.31, 1.55, 7.13, repro,
2014-05-18,0.44, 0.02, -7.61, 2.17, 1.48, 6.70, repro,
2014-05-19,-2.07, -0.49, -4.05, 2.18, 1.49, 6.78, repro,
2014-05-20,-0.80, 0.04, -6.50, 2.20, 1.51, 6.87, repro,
2014-05-21,-0.81, 1.14, -8.44, 2.21, 1.51, 6.85, repro,
2014-05-22,-0.92, 0.67, -7.73, 2.19, 1.49, 6.78, repro,
2014-05-23,-0.76, 0.96, -5.89, 2.19, 1.49, 6.75, repro,
2014-05-24,-0.91, -0.02, -6.63, 2.17, 1.50, 6.75, repro,
2014-05-25,-0.95, -0.16, -8.85, 2.21, 1.51, 6.84, repro,
2014-05-26,-0.61, 0.06, -10.05, 2.21, 1.52, 6.84, repro,
2014-05-27,-0.07, 1.15, -13.04, 2.21, 1.51, 6.82, repro,
2014-05-28,-1.21, 0.94, -10.05, 2.22, 1.51, 6.86, repro,
2014-05-29,-0.63, 0.65, -12.72, 2.19, 1.50, 6.80, repro,
2014-05-30,-1.14, 0.05, -8.77, 2.22, 1.52, 6.87, repro,
2014-05-31,0.38, 0.84, -11.37, 2.19, 1.48, 6.69, repro,
2014-06-01,0.07, 1.00, -8.15, 2.20, 1.48, 6.69, repro,
2014-06-02,-0.46, 1.12, -11.24, 2.19, 1.47, 6.69, repro,
2014-06-03,-3.06, -0.56, -3.01, 2.36, 1.60, 7.30, repro,
2014-06-04,0.51, 0.60, -10.64, 2.20, 1.49, 6.76, repro,
2014-06-05,-0.36, -0.47, -6.26, 2.24, 1.53, 6.87, repro,
2014-06-06,2.63, 1.36, -10.54, 2.20, 1.48, 6.71, repro,
2014-06-07,1.19, 0.84, -11.23, 2.19, 1.47, 6.67, repro,
2014-06-08,0.81, 1.11, -10.48, 2.19, 1.48, 6.69, repro,
2014-06-09,0.80, -0.49, -5.53, 2.26, 1.55, 6.96, repro,
2014-06-10,0.95, -0.62, -7.35, 2.20, 1.48, 6.74, repro,
2014-06-11,0.17, 0.78, -11.68, 2.18, 1.47, 6.67, repro,
2014-06-12,-0.89, 0.05, -7.03, 2.24, 1.51, 6.81, repro,
2014-06-13,0.15, 0.81, -1.14, 2.24, 1.51, 6.80, repro,
2014-06-14,0.16, 0.33, -10.78, 2.19, 1.47, 6.69, repro,
2014-06-15,0.45, 0.55, -8.92, 2.19, 1.49, 6.77, repro,
2014-06-16,1.09, 1.01, -7.35, 2.19, 1.48, 6.75, repro,
2014-06-17,0.81, 0.99, -9.15, 2.18, 1.47, 6.70, repro,
2014-06-18,0.50, 0.50, -9.71, 2.18, 1.47, 6.68, repro,
2014-06-19,-0.05, 0.85, -3.32, 2.19, 1.47, 6.70, repro,
2014-06-20,0.66, 1.53, -7.90, 2.20, 1.49, 6.78, repro,
2014-06-21,0.67, 1.21, -7.14, 2.20, 1.48, 6.76, repro,
2014-06-22,1.47, 0.95, -11.54, 2.18, 1.47, 6.69, repro,
2014-06-23,-0.23, 1.32, -9.38, 2.17, 1.47, 6.67, repro,
2014-06-24,-0.88, 0.53, -5.70, 2.18, 1.48, 6.73, repro,
2014-06-25,1.27, 1.46, -9.46, 2.20, 1.48, 6.75, repro,
2014-06-26,-0.72, -0.12, 0.99, 2.21, 1.50, 6.86, repro,
2014-06-27,-0.80, 0.99, -3.31, 2.19, 1.49, 6.78, repro,
2014-06-28,0.43, -0.12, -1.37, 2.20, 1.48, 6.80, repro,
2014-06-29,-0.58, -0.08, -5.46, 2.15, 1.46, 6.66, repro,
2014-06-30,0.12, 1.17, -11.23, 2.13, 1.45, 6.57, repro,
2014-07-01,-0.52, 1.11, -8.31, 2.15, 1.46, 6.66, repro,
2014-07-02,1.09, 0.58, -10.65, 2.14, 1.46, 6.66, repro,
2014-07-03,0.44, 0.43, -5.76, 2.18, 1.50, 6.82, repro,
2014-07-04,-0.87, -0.56, -1.98, 2.16, 1.49, 6.79, repro,
2014-07-05,0.86, 0.89, -5.04, 2.12, 1.45, 6.62, repro,
2014-07-06,-0.30, 0.22, -10.62, 2.13, 1.45, 6.59, repro,
2014-07-07,-0.22, -0.05, -4.66, 2.15, 1.46, 6.68, repro,
2014-07-08,0.32, 0.81, 2.09, 2.14, 1.46, 6.67, repro,
2014-07-09,-0.06, 1.69, -2.74, 2.16, 1.46, 6.66, repro,
2014-07-10,-0.03, 0.79, -3.13, 2.17, 1.48, 6.77, repro,
2014-07-11,0.61, 0.53, -5.43, 2.13, 1.45, 6.61, repro,
2014-07-12,-1.01, 0.00, -1.44, 2.13, 1.45, 6.61, repro,
2014-07-13,-2.11, 0.60, -7.40, 2.14, 1.46, 6.66, repro,
2014-07-14,-0.14, 0.26, -9.90, 2.20, 1.49, 6.82, repro,
2014-07-15,0.25, 0.45, 2.18, 2.30, 1.52, 6.93, repro,
2014-07-16,0.17, 0.72, 2.68, 2.12, 1.45, 6.61, repro,
2014-07-17,-1.67, 0.63, 1.35, 2.18, 1.47, 6.73, repro,
2014-07-18,-1.91, 0.51, 0.44, 2.14, 1.46, 6.63, repro,
2014-07-19,0.36, 0.89, -0.89, 2.15, 1.45, 6.67, repro,
2014-07-20,-1.45, -0.23, -2.07, 2.18, 1.47, 6.77, repro,
2014-07-21,-0.87, 1.06, -1.84, 2.15, 1.45, 6.68, repro,
2014-07-22,-1.99, 1.40, -6.26, 2.14, 1.45, 6.64, repro,
2014-07-23,-0.97, -0.20, -4.16, 2.19, 1.50, 6.74, repro,
2014-07-24,-0.96, 1.24, -7.45, 2.24, 1.50, 6.74, repro,
2014-07-25,0.12, 0.45, -4.26, 2.14, 1.45, 6.59, repro,
2014-07-26,0.96, 0.85, -8.33, 2.16, 1.46, 6.67, repro,
2014-07-27,0.05, 1.25, -8.24, 2.20, 1.50, 6.76, repro,
2014-07-28,0.42, 1.32, -7.10, 2.13, 1.46, 6.62, repro,
2014-07-29,-0.61, 1.38, -2.40, 2.15, 1.46, 6.69, repro,
2014-07-30,-1.17, 1.53, -10.67, 2.16, 1.46, 6.67, repro,
2014-07-31,-0.93, 1.22, -4.04, 2.14, 1.46, 6.64, repro,
2014-08-01,-0.07, 1.40, -5.69, 2.18, 1.49, 6.79, repro,
2014-08-02,-1.18, 0.27, -6.32, 2.64, 1.66, 7.61, repro,
2014-08-03,0.45, 1.40, -2.46, 2.21, 1.56, 6.99, repro,
2014-08-04,-1.09, 1.37, 0.43, 2.20, 1.50, 6.82, repro,
2014-08-05,-0.71, 0.84, -3.35, 2.20, 1.50, 6.84, repro,
2014-08-06,0.14, 0.46, -6.69, 2.17, 1.49, 6.74, repro,
2014-08-07,-0.71, 1.47, -2.03, 2.20, 1.50, 6.82, repro,
2014-08-08,-0.56, 0.95, -7.11, 2.18, 1.51, 6.81, repro,
2014-08-09,-0.31, 0.94, -2.66, 2.17, 1.49, 6.71, repro,
2014-08-10,-1.87, 1.61, -8.69, 2.17, 1.48, 6.71, repro,
2014-08-11,-0.60, 0.50, -7.85, 2.19, 1.49, 6.77, repro,
2014-08-12,-0.36, 1.55, -4.37, 2.32, 1.55, 7.09, repro,
2014-08-13,-3.33, 1.16, -4.53, 2.21, 1.50, 6.81, repro,
2014-08-14,-1.86, -0.10, 8.68, 2.26, 1.51, 6.93, repro,
2014-08-15,0.96, 1.57, -1.88, 2.25, 1.54, 6.92, repro,
2014-08-16,-2.30, 1.09, -6.09, 2.16, 1.48, 6.67, repro,
2014-08-17,1.79, 0.44, -9.90, 2.20, 1.48, 6.75, repro,
2014-08-18,-1.50, -0.13, -4.54, 2.25, 1.52, 6.86, repro,
2014-08-19,-1.77, 2.76, 6.20, 2.24, 1.55, 6.94, repro,
2014-08-20,-0.76, 1.11, -3.60, 2.29, 1.55, 7.00, repro,
2014-08-21,-1.24, 1.74, -0.67, 2.23, 1.52, 6.84, repro,
2014-08-22,-1.40, 1.33, 2.94, 2.25, 1.54, 6.98, repro,
2014-08-23,-1.06, 0.88, -4.10, 2.20, 1.49, 6.76, repro,
2014-08-24,-1.83, 0.59, -9.06, 2.17, 1.49, 6.70, repro,
2014-08-25,-1.04, -0.31, 1.39, 2.18, 1.50, 6.75, repro,
2014-08-26,-0.19, 0.09, -1.88, 2.19, 1.50, 6.77, repro,
2014-08-27,-0.78, 1.33, 8.03, 2.28, 1.55, 6.97, repro,
2014-08-28,-1.91, 0.33, 0.80, 2.21, 1.49, 6.76, repro,
2014-08-29,-0.89, 0.36, 3.83, 2.19, 1.49, 6.71, repro,
2014-08-30,-2.27, -0.67, 5.02, 2.18, 1.50, 6.70, repro,
2014-08-31,-2.98, 0.52, 6.68, 2.19, 1.49, 6.67, repro,
2014-09-01,-0.51, 0.54, 2.96, 2.18, 1.48, 6.65, repro,
2014-09-02,-0.32, 0.46, 2.98, 2.22, 1.49, 6.75, repro,
2014-09-03,-0.35, 0.28, 2.70, 2.20, 1.51, 6.76, repro,
2014-09-04,-0.97, 1.04, 0.29, 2.17, 1.49, 6.64, repro,
2014-09-05,-1.16, 0.89, -3.65, 2.17, 1.49, 6.63, repro,
2014-09-06,0.16, 1.33, -2.19, 2.18, 1.48, 6.64, repro,
2014-09-07,0.34, 1.13, -1.41, 2.18, 1.49, 6.66, repro,
2014-09-08,0.90, 0.60, 0.61, 2.20, 1.50, 6.72, repro,
2014-09-09,-0.05, 0.84, -0.85, 2.18, 1.49, 6.65, repro,
2014-09-10,1.46, 0.07, -3.79, 2.17, 1.49, 6.67, repro,
2014-09-11,-0.67, 1.72, -2.23, 2.18, 1.49, 6.70, repro,
2014-09-12,-0.60, 0.99, -6.21, 2.19, 1.48, 6.68, repro,
2014-09-13,-0.35, 1.21, -3.34, 2.18, 1.49, 6.68, repro,
2014-09-14,-1.04, 1.54, -1.52, 2.17, 1.48, 6.63, repro,
2014-09-15,-0.53, 0.94, -0.40, 2.15, 1.48, 6.63, repro,
2014-09-16,-0.85, 1.35, 1.47, 2.18, 1.50, 6.71, repro,
2014-09-17,-1.57, 1.18, 1.69, 2.18, 1.49, 6.70, repro,
2014-09-18,-1.99, 0.78, 7.08, 2.15, 1.48, 6.63, repro,
2014-09-19,-2.21, 0.76, 1.89, 2.17, 1.49, 6.69, repro,
2014-09-20,0.13, 0.83, -5.82, 2.11, 1.47, 6.54, repro,
2014-09-21,-0.80, 1.06, 1.76, 2.11, 1.48, 6.59, repro,
2014-09-22,-1.17, 0.95, 0.36, 2.12, 1.48, 6.61, repro,
2014-09-23,-1.09, 0.44, -1.54, 2.16, 1.48, 6.67, repro,
2014-09-24,-1.71, 0.84, -0.99, 2.13, 1.48, 6.63, repro,
2014-09-25,-1.30, 1.53, -4.30, 2.13, 1.48, 6.66, repro,
2014-09-26,-0.87, 0.37, -3.13, 2.11, 1.48, 6.60, repro,
2014-09-27,-0.29, 0.40, -5.32, 2.13, 1.49, 6.66, repro,
2014-09-28,0.10, 0.70, -5.16, 2.15, 1.49, 6.66, repro,
2014-09-29,-1.89, 0.93, 7.77, 2.14, 1.49, 6.71, repro,
2014-09-30,-0.81, 0.21, 3.24, 2.14, 1.49, 6.68, repro,
2014-10-01,-1.00, 0.84, -4.11, 2.14, 1.49, 6.65, repro,
2014-10-02,0.45, -0.98, -2.25, 2.27, 1.55, 6.89, repro,
2014-10-03,-1.18, 0.29, -8.69, 2.15, 1.49, 6.65, repro,
2014-10-04,-0.79, 1.09, -1.63, 2.13, 1.49, 6.66, repro,
2014-10-05,-0.06, 0.52, 1.08, 2.13, 1.49, 6.65, repro,
2014-10-06,0.12, 0.30, 3.00, 2.11, 1.48, 6.61, repro,
2014-10-07,-0.38, 0.75, 1.76, 2.13, 1.49, 6.65, repro,
2014-10-08,-0.68, -0.11, 5.71, 2.15, 1.49, 6.71, repro,
2014-10-09,-0.53, 0.15, -3.80, 2.18, 1.51, 6.84, repro,
2014-10-10,-0.57, 1.04, 2.42, 2.14, 1.48, 6.66, repro,
2014-10-11,-1.63, -0.23, 6.98, 2.15, 1.50, 6.72, repro,
2014-10-12,-1.24, 0.70, -3.21, 2.15, 1.50, 6.79, repro,
2014-10-13,-0.60, 0.21, 1.07, 2.17, 1.51, 6.83, repro,
2014-10-14,-1.31, -0.16, 1.29, 2.13, 1.49, 6.64, repro,
2014-10-15,-1.12, 0.62, 4.50, 2.12, 1.48, 6.61, repro,
2014-10-16,-0.22, 1.01, -5.18, 2.12, 1.49, 6.66, repro,
2014-10-17,-0.31, 0.61, -2.30, 2.11, 1.49, 6.64, repro,
2014-10-18,-0.94, 0.09, -1.82, 2.12, 1.49, 6.65, repro,
2014-10-19,-1.11, 0.55, 0.44, 2.18, 1.52, 6.77, repro,
2014-10-20,-0.91, 1.68, 6.41, 2.11, 1.49, 6.65, repro,
2014-10-21,-1.26, 0.38, 2.49, 2.27, 1.58, 6.92, repro,
2014-10-22,-0.31, 0.25, -5.43, 2.18, 1.53, 6.84, repro,
2014-10-23,-0.30, -0.23, 1.89, 2.13, 1.50, 6.72, repro,
2014-10-24,-0.92, 0.13, -3.62, 2.12, 1.48, 6.64, repro,
2014-10-25,-0.45, 0.69, -1.79, 2.12, 1.48, 6.63, repro,
2014-10-26,-1.10, 0.91, -0.87, 2.12, 1.49, 6.64, repro,
2014-10-27,0.23, 0.42, -3.42, 2.17, 1.54, 6.90, repro,
2014-10-28,-0.39, 1.55, -8.01, 2.30, 1.57, 6.96, repro,
2014-10-29,-1.16, 0.56, 0.13, 2.11, 1.49, 6.63, repro,